Location: Peterborough
(44.3091°N, 78.3197°W)
Time: 18:47:13
(UTC-05:00)

Tiros 1 despin weight - Pass Details

Date: 06 December 2023
Orbit: 581 x 624 km, 48.2° (Epoch: 24 February)

Event Time Altitude Azimuth Distance (km) Brightness Sun altitude
Rises 17:22:02 0° 224° (SW) 2,805 ? -8.4°
Reaches altitude 10° 17:24:24 10° 218° (SW) 1,901 ? -8.8°
Maximum altitude 17:28:31 43° 147° (SSE) 826 ? -9.5°
Enters shadow 17:32:03 13° 78° (ENE) 1,690 ? -10.1°
